| time (UTC) | temp C | wind direction | speed KPH | gust KPH | rain 1hr cm | rain 24hr cm | rain mn cm | humidity % | barometer mb |
| 20260504030443 | 15 | 15 | 4.8 | 8.0 | 0.00 | 0.03 | 0.03 | 63 | 1006.4 |
| 20260504025926 | 15 | 15 | 4.8 | 8.0 | 0.00 | 0.03 | 0.03 | 63 | 1006.4 |
| 20260504025417 | 15 | 19 | 3.2 | 8.0 | 0.00 | 0.03 | 0.03 | 63 | 1006.3 |
| 20260504024927 | 15 | 17 | 4.8 | 8.0 | 0.00 | 0.03 | 0.03 | 62 | 1006.4 |
| 20260504024419 | 15 | 17 | 3.2 | 8.0 | 0.00 | 0.03 | 0.03 | 62 | 1006.3 |
| 20260504023926 | 16 | 17 | 3.2 | 6.4 | 0.00 | 0.03 | 0.03 | 61 | 1006.4 |
| 20260504023436 | 16 | 22 | 3.2 | 6.4 | 0.00 | 0.03 | 0.03 | 61 | 1006.4 |
| 20260504022923 | 16 | 19 | 3.2 | 8.0 | 0.00 | 0.03 | 0.03 | 60 | 1006.3 |
| 20260504022430 | 16 | 17 | 3.2 | 8.0 | 0.00 | 0.03 | 0.03 | 60 | 1006.3 |
| 20260504021918 | 16 | 16 | 3.2 | 6.4 | 0.00 | 0.03 | 0.03 | 60 | 1006.2 |
| 20260504021424 | 16 | 17 | 4.8 | 12.9 | 0.00 | 0.03 | 0.03 | 59 | 1006.1 |
| 20260504020959 | 16 | 17 | 6.4 | 12.9 | 0.00 | 0.03 | 0.03 | 59 | 1006.2 |
| 20260504020448 | 16 | 18 | 4.8 | 8.0 | 0.00 | 0.03 | 0.03 | 59 | 1006.2 |
| 20260504015920 | 16 | 18 | 4.8 | 8.0 | 0.00 | 0.03 | 0.03 | 59 | 1006.0 |
| 20260504015428 | 16 | 22 | 4.8 | 12.9 | 0.00 | 0.03 | 0.03 | 58 | 1005.9 |
| 20260504014937 | 16 | 24 | 4.8 | 9.7 | 0.00 | 0.03 | 0.03 | 58 | 1006.0 |
| 20260504014429 | 17 | 24 | 4.8 | 8.0 | 0.00 | 0.03 | 0.03 | 58 | 1005.9 |
| 20260504013919 | 17 | 20 | 4.8 | 12.9 | 0.00 | 0.03 | 0.03 | 57 | 1005.9 |
| 20260504013455 | 17 | 18 | 6.4 | 14.5 | 0.00 | 0.03 | 0.03 | 57 | 1005.8 |
| 20260504012926 | 17 | 23 | 4.8 | 12.9 | 0.00 | 0.03 | 0.03 | 56 | 1005.9 |
| 20260504012415 | 17 | 23 | 4.8 | 12.9 | 0.00 | 0.03 | 0.03 | 56 | 1005.8 |
| 20260504011925 | 17 | 28 | 4.8 | 12.9 | 0.00 | 0.03 | 0.03 | 56 | 1005.9 |
| 20260504011433 | 17 | 24 | 6.4 | 14.5 | 0.00 | 0.03 | 0.03 | 56 | 1005.8 |
| 20260504010940 | 17 | 28 | 4.8 | 14.5 | 0.00 | 0.03 | 0.03 | 55 | 1005.8 |
| 20260504010427 | 17 | 23 | 4.8 | 14.5 | 0.00 | 0.03 | 0.03 | 55 | 1005.8 |
| 20260504005919 | 17 | 26 | 6.4 | 9.7 | 0.00 | 0.03 | 0.03 | 55 | 1005.8 |
| 20260504005429 | 18 | 22 | 6.4 | 9.7 | 0.00 | 0.03 | 0.03 | 54 | 1005.7 |
| 20260504004918 | 18 | 23 | 6.4 | 16.1 | 0.00 | 0.03 | 0.03 | 54 | 1005.7 |
| 20260504004431 | 18 | 19 | 9.7 | 17.7 | 0.00 | 0.03 | 0.03 | 53 | 1005.8 |
| 20260504003942 | 18 | 23 | 9.7 | 17.7 | 0.00 | 0.03 | 0.03 | 53 | 1005.8 |
| 20260504003431 | 18 | 30 | 6.4 | 19.3 | 0.00 | 0.03 | 0.03 | 53 | 1005.9 |
| 20260504002922 | 18 | 33 | 6.4 | 19.3 | 0.00 | 0.03 | 0.03 | 52 | 1005.8 |
| 20260504002431 | 18 | 30 | 9.7 | 20.9 | 0.00 | 0.03 | 0.03 | 51 | 1005.8 |
| 20260504001940 | 18 | 27 | 9.7 | 20.9 | 0.00 | 0.03 | 0.03 | 51 | 1005.9 |
| 20260504001446 | 19 | 34 | 8.0 | 20.9 | 0.00 | 0.03 | 0.03 | 51 | 1005.9 |
| 20260504000915 | 19 | 215 | 8.0 | 14.5 | 0.00 | 0.03 | 0.03 | 50 | 1005.9 |
| 20260504000423 | 19 | 227 | 8.0 | 16.1 | 0.00 | 0.03 | 0.03 | 50 | 1005.8 |
| 20260503235934 | 19 | 231 | 9.7 | 16.1 | 0.00 | 0.03 | 0.03 | 50 | 1005.8 |
| 20260503235423 | 19 | 207 | 6.4 | 14.5 | 0.00 | 0.03 | 0.03 | 50 | 1005.8 |
| 20260503234931 | 20 | 250 | 6.4 | 14.5 | 0.00 | 0.03 | 0.03 | 49 | 1005.8 |
| 20260503234421 | 20 | 212 | 6.4 | 17.7 | 0.00 | 0.03 | 0.03 | 49 | 1005.9 |
| 20260503233930 | 20 | 247 | 8.0 | 17.7 | 0.00 | 0.03 | 0.03 | 48 | 1005.9 |
| 20260503233418 | 20 | 218 | 9.7 | 17.7 | 0.00 | 0.03 | 0.03 | 48 | 1005.9 |
| 20260503232928 | 20 | 209 | 6.4 | 22.5 | 0.00 | 0.03 | 0.03 | 47 | 1005.8 |
| 20260503232417 | 20 | 213 | 9.7 | 22.5 | 0.00 | 0.03 | 0.03 | 47 | 1005.8 |
| 20260503231923 | 20 | 254 | 4.8 | 29.0 | 0.00 | 0.03 | 0.03 | 48 | 1005.9 |
| 20260503231430 | 20 | 249 | 9.7 | 29.0 | 0.00 | 0.03 | 0.03 | 47 | 1005.8 |
| 20260503230938 | 20 | 215 | 8.0 | 17.7 | 0.00 | 0.03 | 0.03 | 47 | 1005.8 |
| 20260503230447 | 20 | 207 | 6.4 | 22.5 | 0.00 | 0.03 | 0.03 | 47 | 1005.9 |
| 20260503225932 | 20 | 246 | 8.0 | 22.5 | 0.00 | 0.03 | 0.03 | 47 | 1006.0 |
| 20260503225420 | 20 | 195 | 11.3 | 22.5 | 0.00 | 0.03 | 0.03 | 46 | 1006.0 |
| 20260503224926 | 20 | 250 | 6.4 | 22.5 | 0.00 | 0.03 | 0.03 | 47 | 1006.0 |
| 20260503224438 | 20 | 215 | 12.9 | 22.5 | 0.00 | 0.03 | 0.03 | 46 | 1006.0 |
| 20260503223948 | 20 | 203 | 12.9 | 22.5 | 0.00 | 0.03 | 0.03 | 46 | 1006.0 |
| 20260503223434 | 20 | 207 | 11.3 | 27.4 | 0.00 | 0.03 | 0.03 | 47 | 1006.1 |
| 20260503222926 | 20 | 238 | 9.7 | 27.4 | 0.00 | 0.03 | 0.03 | 46 | 1006.1 |
| 20260503222415 | 20 | 182 | 12.9 | 24.1 | 0.00 | 0.03 | 0.03 | 46 | 1006.2 |
| 20260503221920 | 20 | 231 | 11.3 | 24.1 | 0.00 | 0.03 | 0.03 | 46 | 1006.2 |
| 20260503221429 | 19 | 216 | 14.5 | 24.1 | 0.00 | 0.03 | 0.03 | 46 | 1006.3 |
| 20260503220934 | 19 | 207 | 9.7 | 24.1 | 0.00 | 0.03 | 0.03 | 47 | 1006.4 |
| 20260503220421 | 18 | 203 | 6.4 | 17.7 | 0.00 | 0.03 | 0.03 | 48 | 1006.5 |
| 20260503215932 | 18 | 204 | 8.0 | 22.5 | 0.00 | 0.03 | 0.03 | 48 | 1006.4 |
| 20260503215420 | 18 | 207 | 9.7 | 22.5 | 0.00 | 0.03 | 0.03 | 48 | 1006.4 |
| 20260503214930 | 18 | 190 | 11.3 | 22.5 | 0.00 | 0.03 | 0.03 | 48 | 1006.5 |
| 20260503214439 | 18 | 203 | 14.5 | 24.1 | 0.00 | 0.03 | 0.03 | 48 | 1006.5 |
| 20260503213945 | 18 | 229 | 11.3 | 29.0 | 0.00 | 0.03 | 0.03 | 49 | 1006.7 |
| 20260503213432 | 18 | 191 | 16.1 | 29.0 | 0.00 | 0.03 | 0.03 | 46 | 1006.6 |
| 20260503212923 | 18 | 206 | 11.3 | 33.8 | 0.00 | 0.03 | 0.03 | 48 | 1006.9 |
| 20260503212429 | 18 | 186 | 16.1 | 33.8 | 0.00 | 0.03 | 0.03 | 48 | 1006.9 |
| 20260503211918 | 18 | 221 | 12.9 | 24.1 | 0.00 | 0.03 | 0.03 | 47 | 1007.2 |
| 20260503211445 | 18 | 190 | 16.1 | 24.1 | 0.00 | 0.03 | 0.03 | 47 | 1007.2 |
| 20260503210929 | 18 | 152 | 12.9 | 22.5 | 0.00 | 0.03 | 0.03 | 47 | 1007.1 |
| 20260503210417 | 18 | 245 | 16.1 | 27.4 | 0.00 | 0.03 | 0.03 | 47 | 1007.4 |
| 20260503205930 | 17 | 218 | 12.9 | 27.4 | 0.00 | 0.03 | 0.03 | 48 | 1007.4 |
| 20260503205419 | 17 | 210 | 14.5 | 24.1 | 0.00 | 0.03 | 0.03 | 46 | 1007.5 |
| 20260503204926 | 17 | 217 | 11.3 | 24.1 | 0.00 | 0.03 | 0.03 | 46 | 1007.6 |
| 20260503204438 | 17 | 171 | 14.5 | 27.4 | 0.00 | 0.03 | 0.03 | 46 | 1007.7 |
| 20260503203944 | 18 | 238 | 16.1 | 29.0 | 0.00 | 0.03 | 0.03 | 45 | 1007.9 |
| 20260503203429 | 18 | 206 | 14.5 | 27.4 | 0.00 | 0.03 | 0.03 | 45 | 1007.9 |
| 20260503202941 | 18 | 195 | 9.7 | 33.8 | 0.00 | 0.03 | 0.03 | 46 | 1008.0 |
| 20260503202455 | 18 | 211 | 17.7 | 32.2 | 0.00 | 0.03 | 0.03 | 45 | 1008.0 |
| 20260503202006 | 18 | 213 | 17.7 | 27.4 | 0.00 | 0.03 | 0.03 | 44 | 1008.1 |
| 20260503201427 | 18 | 213 | 16.1 | 29.0 | 0.00 | 0.03 | 0.03 | 45 | 1008.2 |
| 20260503200936 | 18 | 213 | 19.3 | 29.0 | 0.00 | 0.03 | 0.03 | 44 | 1008.1 |
| 20260503200443 | 18 | 208 | 17.7 | 32.2 | 0.00 | 0.03 | 0.03 | 47 | 1008.2 |
| 20260503195933 | 17 | 47 | 17.7 | 40.2 | 0.00 | 0.03 | 0.03 | 47 | 1008.1 |
| 20260503195420 | 17 | 28 | 19.3 | 38.6 | 0.00 | 0.03 | 0.03 | 48 | 1008.2 |
| 20260503194929 | 17 | 29 | 22.5 | 38.6 | 0.00 | 0.03 | 0.03 | 47 | 1008.2 |
| 20260503194419 | 17 | 28 | 16.1 | 38.6 | 0.00 | 0.03 | 0.03 | 51 | 1008.2 |
| 20260503193926 | 17 | 28 | 20.9 | 38.6 | 0.00 | 0.03 | 0.03 | 50 | 1008.4 |
| 20260503193413 | 16 | 22 | 19.3 | 35.4 | 0.00 | 0.03 | 0.03 | 51 | 1008.4 |
| 20260503192924 | 16 | 29 | 14.5 | 29.0 | 0.00 | 0.03 | 0.03 | 53 | 1008.5 |
| 20260503192429 | 16 | 25 | 14.5 | 24.1 | 0.00 | 0.03 | 0.03 | 55 | 1008.6 |
| 20260503191915 | 16 | 22 | 14.5 | 37.0 | 0.00 | 0.03 | 0.03 | 56 | 1008.6 |
| 20260503191429 | 16 | 19 | 19.3 | 37.0 | 0.00 | 0.03 | 0.03 | 55 | 1008.8 |
| 20260503190939 | 15 | 23 | 22.5 | 32.2 | 0.00 | 0.03 | 0.03 | 57 | 1008.8 |
| 20260503190426 | 15 | 18 | 12.9 | 27.4 | 0.00 | 0.03 | 0.03 | 63 | 1009.0 |
| 20260503185935 | 15 | 16 | 14.5 | 27.4 | 0.00 | 0.03 | 0.03 | 62 | 1009.0 |
| 20260503185442 | 14 | 16 | 16.1 | 29.0 | 0.00 | 0.03 | 0.03 | 63 | 1009.2 |
| 20260503184930 | 14 | 15 | 16.1 | 27.4 | 0.00 | 0.03 | 0.03 | 64 | 1009.4 |
| 20260503184441 | 14 | 15 | 12.9 | 30.6 | 0.00 | 0.03 | 0.03 | 64 | 1009.5 |
| 20260503183928 | 13 | 16 | 17.7 | 30.6 | 0.00 | 0.03 | 0.03 | 63 | 1009.5 |
| 20260503183418 | 13 | 18 | 9.7 | 22.5 | 0.00 | 0.03 | 0.03 | 68 | 1009.6 |
| 20260503182953 | 13 | 20 | 11.3 | 22.5 | 0.00 | 0.03 | 0.03 | 69 | 1009.7 |
| 20260503182441 | 12 | 26 | 11.3 | 20.9 | 0.00 | 0.03 | 0.03 | 71 | 1009.7 |
| 20260503181926 | 12 | 15 | 8.0 | 17.7 | 0.00 | 0.03 | 0.03 | 74 | 1009.8 |
| 20260503181416 | 12 | 16 | 8.0 | 14.5 | 0.03 | 0.03 | 0.03 | 77 | 1010.0 |
| 20260503180923 | 11 | 16 | 8.0 | 22.5 | 0.03 | 0.03 | 0.03 | 77 | 1010.2 |
| 20260503180413 | 11 | 17 | 8.0 | 22.5 | 0.03 | 0.03 | 0.03 | 78 | 1010.4 |
| 20260503175927 | 11 | 17 | 6.4 | 12.9 | 0.03 | 0.03 | 0.03 | 77 | 1010.6 |
| 20260503175436 | 10 | 14 | 8.0 | 17.7 | 0.03 | 0.03 | 0.03 | 79 | 1010.6 |
| 20260503174920 | 10 | 14 | 8.0 | 17.7 | 0.03 | 0.03 | 0.03 | 79 | 1010.8 |
| 20260503174428 | 10 | 15 | 11.3 | 17.7 | 0.03 | 0.03 | 0.03 | 80 | 1011.1 |
| 20260503173916 | 10 | 15 | 8.0 | 32.2 | 0.03 | 0.03 | 0.03 | 81 | 1011.2 |
| 20260503173424 | 10 | 16 | 19.3 | 32.2 | 0.03 | 0.03 | 0.03 | 80 | 1011.7 |
| 20260503172929 | 9 | 15 | 6.4 | 14.5 | 0.03 | 0.03 | 0.03 | 85 | 1012.0 |
| 20260503172414 | 9 | 15 | 8.0 | 20.9 | 0.03 | 0.03 | 0.03 | 84 | 1012.1 |
| 20260503171922 | 9 | 17 | 11.3 | 20.9 | 0.03 | 0.03 | 0.03 | 84 | 1012.3 |
| 20260503171430 | 9 | 17 | 9.7 | 20.9 | 0.00 | 0.00 | 0.00 | 84 | 1012.6 |
| 20260503170919 | 9 | 18 | 11.3 | 20.9 | 0.00 | 0.00 | 0.00 | 84 | 1012.8 |
| 20260503170427 | 9 | 14 | 6.4 | 16.1 | 0.00 | 0.00 | 0.00 | 85 | 1012.5 |
| 20260503150924 | 12 | 15 | 12.9 | 19.3 | 0.00 | 0.00 | 0.00 | 62 | 1013.8 |
| 20260503150430 | 11 | 14 | 6.4 | 19.3 | 0.00 | 0.00 | 0.00 | 63 | 1013.7 |
| 20260503130931 | 9 | 15 | 6.4 | 16.1 | 0.00 | 0.00 | 0.00 | 64 | 1014.4 |
| 20260503130418 | 9 | 16 | 8.0 | 16.1 | 0.00 | 0.00 | 0.00 | 64 | 1014.5 |
| 20260503110442 | 7 | 28 | 4.8 | 12.9 | 0.00 | 0.00 | 0.00 | 67 | 1014.2 |
| 20260503090423 | 6 | 24 | 3.2 | 6.4 | 0.00 | 0.00 | 0.00 | 66 | 1014.7 |
| 20260503081424 | 7 | 28 | 4.8 | 9.7 | 0.00 | 0.00 | 0.00 | 62 | 1014.9 |
| 20260503080934 | 7 | 26 | 4.8 | 12.9 | 0.00 | 0.00 | 0.00 | 62 | 1014.9 |
| 20260503080442 | 7 | 28 | 6.4 | 12.9 | 0.00 | 0.00 | 0.00 | 61 | 1015.0 |
| 20260503072926 | 7 | 26 | 3.2 | 12.9 | 0.00 | 0.00 | 0.00 | 61 | 1014.8 |
| 20260503072416 | 7 | 25 | 4.8 | 9.7 | 0.00 | 0.00 | 0.00 | 60 | 1014.8 |
| 20260503071925 | 7 | 26 | 3.2 | 12.9 | 0.00 | 0.00 | 0.00 | 61 | 1014.9 |
| 20260503071416 | 7 | 30 | 4.8 | 12.9 | 0.00 | 0.00 | 0.00 | 60 | 1014.9 |
| 20260503070954 | 7 | 26 | 4.8 | 9.7 | 0.00 | 0.00 | 0.00 | 61 | 1015.0 |
| 20260503070421 | 7 | 31 | 4.8 | 6.4 | 0.00 | 0.00 | 0.00 | 61 | 1014.9 |
| 20260503054915 | 7 | 22 | 3.2 | 6.4 | 0.00 | 0.00 | 0.00 | 58 | 1015.7 |
| 20260503054447 | 7 | 19 | 3.2 | 6.4 | 0.00 | 0.00 | 0.00 | 58 | 1015.8 |
| 20260503053933 | 7 | 22 | 3.2 | 6.4 | 0.00 | 0.00 | 0.00 | 57 | 1015.9 |
| 20260503053421 | 8 | 24 | 3.2 | 9.7 | 0.00 | 0.00 | 0.00 | 57 | 1015.9 |
| 20260503052930 | 8 | 21 | 3.2 | 12.9 | 0.00 | 0.00 | 0.00 | 56 | 1015.9 |
| 20260503052417 | 8 | 24 | 4.8 | 14.5 | 0.00 | 0.00 | 0.00 | 56 | 1016.0 |
| 20260503051924 | 8 | 33 | 4.8 | 14.5 | 0.00 | 0.00 | 0.00 | 56 | 1016.0 |
| 20260503051414 | 8 | 32 | 4.8 | 9.7 | 0.00 | 0.00 | 0.00 | 56 | 1016.1 |
| 20260503050921 | 8 | 30 | 4.8 | 6.4 | 0.00 | 0.00 | 0.00 | 56 | 1016.0 |
| 20260503050431 | 8 | 29 | 4.8 | 9.7 | 0.00 | 0.00 | 0.00 | 57 | 1016.0 |
| 20260503045930 | 8 | 28 | 3.2 | 9.7 | 0.00 | 0.00 | 0.00 | 57 | 1016.1 |
| 20260503045416 | 8 | 24 | 4.8 | 8.0 | 0.00 | 0.00 | 0.00 | 57 | 1016.2 |
| 20260503044925 | 8 | 22 | 4.8 | 8.0 | 0.00 | 0.00 | 0.00 | 57 | 1016.1 |
| 20260503044417 | 8 | 24 | 4.8 | 6.4 | 0.00 | 0.00 | 0.00 | 57 | 1016.1 |
| 20260503043954 | 8 | 24 | 3.2 | 6.4 | 0.00 | 0.00 | 0.00 | 57 | 1016.1 |
| 20260503043440 | 8 | 25 | 4.8 | 9.7 | 0.00 | 0.00 | 0.00 | 56 | 1016.1 |
| 20260503042923 | 8 | 22 | 4.8 | 9.7 | 0.00 | 0.00 | 0.00 | 56 | 1016.1 |
| 20260503042431 | 8 | 21 | 3.2 | 8.0 | 0.00 | 0.00 | 0.00 | 57 | 1016.0 |
| 20260503041916 | 8 | 23 | 3.2 | 8.0 | 0.00 | 0.00 | 0.00 | 57 | 1016.0 |
| 20260503041426 | 8 | 22 | 4.8 | 8.0 | 0.00 | 0.00 | 0.00 | 57 | 1016.1 |
| 20260503040916 | 8 | 19 | 3.2 | 6.4 | 0.00 | 0.00 | 0.00 | 57 | 1016.1 |
| 20260503040425 | 8 | 22 | 4.8 | 6.4 | 0.00 | 0.00 | 0.00 | 57 | 1016.1 |
| 20260503035936 | 8 | 28 | 3.2 | 6.4 | 0.00 | 0.00 | 0.00 | 57 | 1016.1 |
| 20260503035421 | 8 | 21 | 3.2 | 6.4 | 0.00 | 0.00 | 0.00 | 58 | 1016.1 |
| 20260503034924 | 8 | 21 | 3.2 | 6.4 | 0.00 | 0.00 | 0.00 | 57 | 1016.1 |
| 20260503034436 | 8 | 19 | 4.8 | 6.4 | 0.00 | 0.00 | 0.00 | 57 | 1016.2 |
| 20260503033944 | 8 | 20 | 3.2 | 4.8 | 0.00 | 0.00 | 0.00 | 57 | 1016.2 |
| 20260503033432 | 8 | 19 | 3.2 | 4.8 | 0.00 | 0.00 | 0.00 | 57 | 1016.2 |
| 20260503032921 | 8 | 20 | 3.2 | 6.4 | 0.00 | 0.00 | 0.00 | 56 | 1016.3 |
| 20260503032429 | 8 | 22 | 3.2 | 6.4 | 0.00 | 0.00 | 0.00 | 56 | 1016.3 |
| 20260503031915 | 8 | 22 | 3.2 | 6.4 | 0.00 | 0.00 | 0.00 | 55 | 1016.3 |
| 20260503031448 | 8 | 21 | 3.2 | 6.4 | 0.00 | 0.00 | 0.00 | 55 | 1016.3 |